Weather History for Delta, CO

Change the Weather History Date:

Sunday, June 23, 2013

  Actual Average (KMTJ) Record (KMTJ)
Temperature  
Mean Temperature 71 °F 70 °F  
Max Temperature 93 °F 87 °F 97 °F (2007)
Min Temperature 49 °F 54 °F 46 °F (2004)
Degree Days  
Heating Degree Days 0 0  
Month to date heating degree days 38  
Since 1 June heating degree days 38  
Since 1 July heating degree days 6202  
Cooling Degree Days 6 6  
Month to date cooling degree days 88  
Year to date cooling degree days 105  
Since 1 June cooling degree days 88  
Growing Degree Days 21 (Base 50)    
Moisture  
Dew Point 21 °F    
Average Humidity 16    
Maximum Humidity 40    
Minimum Humidity 6    
Precipitation  
Precipitation 0.00 in 0.03 in 0.04 in (2005)
Month to date precipitation 0.56  
Year to date precipitation 4.86  
Sea Level Pressure  
Sea Level Pressure 29.93 in    
Wind  
Wind Speed 6 mph (SE)    
Max Wind Speed 22 mph    
Max Gust Speed 29 mph    
Visibility 10 miles    
Events      
T = Trace of Precipitation, MM = Missing Value Source: NWS Daily Summary

Daily Weather History Graph

Daily Weather History Graph

Search for Another Location

Airport:

Trip Planner

Search our weather history database for the weather conditions in past years. The results will help you decide how hot, cold, wet, or windy it might be!

Date:

Astronomy

Jun. 23, 2013 Rise Set
Actual Time 5:48 AM MDT 8:41 PM MDT
Civil Twilight 5:16 AM MDT 9:13 PM MDT
Nautical Twilight 4:35 AM MDT 9:53 PM MDT
Astronomical Twilight 3:49 AM MDT 10:39 PM MDT
Moon 8:57 PM MDT (6/23) 6:08 AM MDT (6/23)
Length of Visible Light 15h 57m
Length of Day
14h 53m
Full, 100% of the Moon is Illuminated
Jun 23
Full
Jun 29
Last Quarter
Jul 8
New
Jul 15
First Quarter
Jul 22
Full

Hourly Weather History & Observations

Time (MDT) Temp. Dew Point Humidity Pressure Visibility Wind Dir Wind Speed Gust Speed Precip Events Conditions
12:15 AM 62.8 °F 23.5 °F 22% 29.96 in 10.0 mi NE 5.8 mph - N/A   Clear
12:35 AM 62.2 °F 23.5 °F 23% 29.97 in 10.0 mi NE 4.6 mph - N/A   Clear
12:55 AM 63.1 °F 20.8 °F 20% 29.98 in 10.0 mi East 4.6 mph - N/A   Clear
1:15 AM 61.0 °F 22.6 °F 23% 29.97 in 10.0 mi NE 4.6 mph - N/A   Clear
1:35 AM 59.0 °F 27.1 °F 30% 29.98 in 10.0 mi Calm Calm - N/A   Clear
1:55 AM 60.8 °F 19.8 °F 21% 29.98 in 10.0 mi ENE 5.8 mph - N/A   Clear
2:15 AM 59.5 °F 20.8 °F 22% 29.99 in 7.0 mi NE 5.8 mph - N/A   Clear
2:35 AM 57.2 °F 24.1 °F 28% 29.99 in 10.0 mi NE 8.1 mph - N/A   Clear
2:55 AM 57.7 °F 22.6 °F 26% 29.99 in 10.0 mi NE 8.1 mph - N/A   Clear
3:15 AM 58.1 °F 19.6 °F 22% 30.00 in 10.0 mi NE 5.8 mph - N/A   Clear
3:35 AM 59.4 °F 21.6 °F 23% 30.00 in 10.0 mi East 6.9 mph - N/A   Clear
3:55 AM 56.3 °F 19.4 °F 24% 30.00 in 10.0 mi SW 3.5 mph - N/A   Clear
4:15 AM 55.2 °F 25.5 °F 32% 30.00 in 10.0 mi Calm Calm - N/A   Clear
4:35 AM 55.2 °F 24.6 °F 31% 30.00 in 10.0 mi Calm Calm - N/A   Clear
4:55 AM 54.7 °F 27.0 °F 34% 30.00 in 10.0 mi Calm Calm - N/A   Clear
5:15 AM 51.8 °F 26.4 °F 37% 30.01 in 10.0 mi East 4.6 mph - N/A   Clear
5:35 AM 53.1 °F 20.7 °F 28% 30.01 in 10.0 mi ENE 4.6 mph - N/A   Clear
5:55 AM 49.5 °F 26.1 °F 40% 30.02 in 10.0 mi ENE 3.5 mph - N/A   Clear
6:15 AM 50.7 °F 25.5 °F 38% 30.02 in 10.0 mi Calm Calm - N/A   Clear
6:35 AM 54.1 °F 21.7 °F 28% 30.03 in 10.0 mi Calm Calm - N/A   Clear
6:55 AM 56.3 °F 23.9 °F 29% 30.03 in 10.0 mi East 3.5 mph - N/A   Clear
7:15 AM 58.8 °F 25.5 °F 28% 30.03 in 10.0 mi NE 6.9 mph - N/A   Clear
7:35 AM 61.3 °F 26.2 °F 26% 30.03 in 10.0 mi ENE 8.1 mph - N/A   Clear
7:55 AM 63.5 °F 27.7 °F 26% 30.03 in 10.0 mi East 9.2 mph - N/A   Clear
8:15 AM 65.8 °F 26.4 °F 23% 30.03 in 10.0 mi East 8.1 mph - N/A   Clear
8:35 AM 66.7 °F 28.4 °F 24% 30.03 in 10.0 mi ESE 5.8 mph - N/A   Clear
8:55 AM 68.2 °F 26.4 °F 21% 30.03 in 10.0 mi SE 4.6 mph - N/A   Clear
9:15 AM 68.7 °F 26.6 °F 21% 30.03 in 10.0 mi Calm Calm - N/A   Clear
9:35 AM 70.9 °F 27.7 °F 20% 30.03 in 10.0 mi Calm Calm - N/A   Clear
9:55 AM 73.6 °F 24.4 °F 16% 30.02 in 10.0 mi SSE 3.5 mph - N/A   Clear
10:15 AM 74.8 °F 23.4 °F 15% 30.01 in 10.0 mi SE 3.5 mph - N/A   Clear
10:35 AM 76.5 °F 22.6 °F 13% 30.00 in 10.0 mi South 4.6 mph - N/A   Clear
10:55 AM 78.8 °F 22.8 °F 13% 30.00 in 10.0 mi ESE 3.5 mph - N/A   Clear
11:15 AM 80.2 °F 24.1 °F 13% 29.99 in 10.0 mi NNE 3.5 mph - N/A   Clear
11:35 AM 81.9 °F 21.4 °F 11% 29.98 in 10.0 mi Calm Calm - N/A   Clear
11:55 AM 82.8 °F 21.7 °F 11% 29.97 in 10.0 mi Calm Calm - N/A   Clear
12:15 PM 84.0 °F 23.9 °F 11% 29.96 in 10.0 mi SSE 3.5 mph - N/A   Clear
12:35 PM 84.9 °F 21.0 °F 10% 29.94 in 10.0 mi Calm Calm - N/A   Clear
12:55 PM 87.8 °F 20.8 °F 9% 29.93 in 10.0 mi East 5.8 mph - N/A   Clear
1:15 PM 89.4 °F 21.4 °F 8% 29.92 in 10.0 mi NE 3.5 mph - N/A   Clear
1:35 PM 90.1 °F 21.6 °F 8% 29.91 in 10.0 mi NNE 6.9 mph - N/A   Clear
1:55 PM 90.3 °F 20.5 °F 8% 29.90 in 10.0 mi SE 3.5 mph - N/A   Clear
2:15 PM 91.8 °F 21.9 °F 8% 29.89 in 10.0 mi SW 3.5 mph - N/A   Clear
2:35 PM 91.4 °F 22.3 °F 8% 29.88 in 10.0 mi SSE 9.2 mph - N/A   Clear
2:55 PM 90.9 °F 22.1 °F 8% 29.87 in 10.0 mi South 6.9 mph 16.1 mph N/A   Clear
3:15 PM 91.8 °F 22.1 °F 8% 29.86 in 10.0 mi SSW 3.5 mph - N/A   Clear
3:35 PM 93.6 °F 23.4 °F 8% 29.85 in 10.0 mi SSW 10.4 mph 17.3 mph N/A   Clear
3:55 PM 91.6 °F 21.6 °F 8% 29.85 in 10.0 mi SSW 5.8 mph - N/A   Clear
4:15 PM 93.0 °F 24.8 °F 9% 29.84 in 10.0 mi SSE 8.1 mph - N/A   Clear
4:35 PM 93.4 °F 19.8 °F 7% 29.84 in 10.0 mi SW 17.3 mph 24.2 mph N/A   Clear
4:55 PM 91.2 °F 21.6 °F 8% 29.83 in 10.0 mi SW 17.3 mph 24.2 mph N/A   Clear
5:15 PM 90.5 °F 19.6 °F 7% 29.83 in 10.0 mi SW 15.0 mph 24.2 mph N/A   Clear
5:35 PM 90.5 °F 20.5 °F 8% 29.83 in 10.0 mi SW 18.4 mph 23.0 mph N/A   Clear
5:55 PM 90.3 °F 18.9 °F 7% 29.82 in 10.0 mi WSW 12.7 mph 18.4 mph N/A   Clear
6:15 PM 89.8 °F 18.3 °F 7% 29.82 in 10.0 mi SW 16.1 mph 24.2 mph N/A   Clear
6:35 PM 89.4 °F 17.6 °F 7% 29.82 in 10.0 mi SW 21.9 mph 28.8 mph N/A   Clear
6:55 PM 89.1 °F 16.0 °F 7% 29.82 in 10.0 mi SW 18.4 mph 26.5 mph N/A   Clear
7:15 PM 90.7 °F 14.4 °F 6% 29.82 in 10.0 mi WSW 20.7 mph 27.6 mph N/A   Clear
7:35 PM 90.1 °F 15.6 °F 6% 29.82 in 10.0 mi SW 17.3 mph 24.2 mph N/A   Clear
7:55 PM 88.7 °F 17.2 °F 7% 29.83 in 10.0 mi SW 15.0 mph 21.9 mph N/A   Clear
8:15 PM 86.9 °F 16.7 °F 7% 29.83 in 10.0 mi SW 12.7 mph - N/A   Clear
8:35 PM 84.6 °F 16.7 °F 8% 29.83 in 10.0 mi SW 9.2 mph - N/A   Clear
8:55 PM 82.8 °F 14.7 °F 8% 29.84 in 10.0 mi SW 10.4 mph - N/A   Clear
9:15 PM 81.7 °F 12.9 °F 8% 29.84 in 10.0 mi SW 6.9 mph - N/A   Clear
9:35 PM 81.3 °F 11.5 °F 7% 29.85 in 10.0 mi SW 6.9 mph - N/A   Clear
9:55 PM 78.6 °F 12.9 °F 8% 29.86 in 10.0 mi WSW 6.9 mph - N/A   Clear
10:15 PM 79.7 °F 11.3 °F 7% 29.86 in 10.0 mi West 9.2 mph - N/A   Clear
10:35 PM 77.7 °F 11.3 °F 8% 29.87 in 10.0 mi WSW 4.6 mph - N/A   Clear
10:55 PM 75.0 °F 16.3 °F 11% 29.87 in 10.0 mi ENE 3.5 mph - N/A   Clear
11:15 PM 70.7 °F 24.6 °F 18% 29.87 in 10.0 mi NE 5.8 mph - N/A   Clear
11:35 PM 71.2 °F 19.8 °F 14% 29.87 in 10.0 mi NNE 5.8 mph - N/A   Clear
11:55 PM 68.9 °F 22.6 °F 17% 29.87 in 10.0 mi NE 6.9 mph - N/A   Clear